| time (UTC) | temp C | wind direction | speed KPH | gust KPH | rain 1hr cm | rain 24hr cm | rain mn cm | humidity % | barometer mb |
| 20260503212341 | 20 | 5 | 4.8 | 4.8 | 0.00 | 0.00 | 0.00 | 35 | 1015.0 |
| 20260503211841 | 20 | 6 | 0.0 | 3.2 | 0.00 | 0.00 | 0.00 | 40 | 1015.0 |
| 20260503211340 | 20 | 183 | 0.0 | 3.2 | 0.00 | 0.00 | 0.00 | 35 | 1016.0 |
| 20260503210840 | 20 | 16 | 8.0 | 9.7 | 0.00 | 0.00 | 0.00 | 32 | 1016.0 |
| 20260503210339 | 20 | 162 | 0.0 | 6.4 | 0.00 | 0.00 | 0.00 | 37 | 1016.0 |
| 20260503205838 | 20 | 327 | 0.0 | 4.8 | 0.00 | 0.00 | 0.00 | 35 | 1016.0 |
| 20260503205338 | 19 | 10 | 0.0 | 3.2 | 0.00 | 0.00 | 0.00 | 38 | 1016.0 |
| 20260503204837 | 18 | 55 | 4.8 | 6.4 | 0.00 | 0.00 | 0.00 | 32 | 1016.0 |
| 20260503204337 | 19 | 176 | 3.2 | 3.2 | 0.00 | 0.00 | 0.00 | 38 | 1016.0 |
| 20260503203836 | 19 | 151 | 4.8 | 4.8 | 0.00 | 0.00 | 0.00 | 37 | 1016.0 |
| 20260503203336 | 20 | 0.0 | 3.2 | 0.00 | 0.00 | 0.00 | 33 | 1016.0 | |
| 20260503202835 | 19 | 228 | 3.2 | 4.8 | 0.00 | 0.00 | 0.00 | 35 | 1016.0 |
| 20260503202335 | 20 | 117 | 6.4 | 14.5 | 0.00 | 0.00 | 0.00 | 36 | 1016.0 |
| 20260503201834 | 20 | 14 | 6.4 | 6.4 | 0.00 | 0.00 | 0.00 | 37 | 1016.0 |
| 20260503201334 | 19 | 106 | 6.4 | 8.0 | 0.00 | 0.00 | 0.00 | 37 | 1016.0 |
| 20260503200834 | 19 | 12 | 4.8 | 6.4 | 0.00 | 0.00 | 0.00 | 36 | 1017.0 |
| 20260503200333 | 19 | 155 | 4.8 | 4.8 | 0.00 | 0.00 | 0.00 | 34 | 1016.0 |
| 20260503195833 | 18 | 96 | 6.4 | 6.4 | 0.00 | 0.00 | 0.00 | 37 | 1017.0 |
| 20260503195332 | 19 | 58 | 6.4 | 6.4 | 0.00 | 0.00 | 0.00 | 32 | 1017.0 |
| 20260503194832 | 18 | 89 | 0.0 | 4.8 | 0.00 | 0.00 | 0.00 | 34 | 1017.0 |
| 20260503194331 | 18 | 277 | 0.0 | 3.2 | 0.00 | 0.00 | 0.00 | 37 | 1017.0 |
| 20260503193830 | 18 | 49 | 0.0 | 4.8 | 0.00 | 0.00 | 0.00 | 39 | 1017.0 |
| 20260503193330 | 19 | 94 | 14.5 | 19.3 | 0.00 | 0.00 | 0.00 | 33 | 1017.0 |
| 20260503192829 | 18 | 1 | 4.8 | 4.8 | 0.00 | 0.00 | 0.00 | 37 | 1017.0 |
| 20260503192329 | 20 | 52 | 4.8 | 11.3 | 0.00 | 0.00 | 0.00 | 31 | 1017.0 |
| 20260503191828 | 19 | 162 | 3.2 | 3.2 | 0.00 | 0.00 | 0.00 | 33 | 1017.0 |
| 20260503191328 | 18 | 55 | 4.8 | 4.8 | 0.00 | 0.00 | 0.00 | 38 | 1017.0 |
| 20260503190828 | 18 | 79 | 6.4 | 6.4 | 0.00 | 0.00 | 0.00 | 34 | 1017.0 |
| 20260503190327 | 19 | 96 | 6.4 | 8.0 | 0.00 | 0.00 | 0.00 | 32 | 1017.0 |
| 20260503185827 | 19 | 331 | 4.8 | 4.8 | 0.00 | 0.00 | 0.00 | 37 | 1017.0 |
| 20260503185326 | 18 | 272 | 0.0 | 3.2 | 0.00 | 0.00 | 0.00 | 38 | 1017.0 |
| 20260503184826 | 18 | 74 | 6.4 | 11.3 | 0.00 | 0.00 | 0.00 | 33 | 1018.0 |
| 20260503184325 | 18 | 49 | 3.2 | 3.2 | 0.00 | 0.00 | 0.00 | 33 | 1018.0 |
| 20260503183824 | 19 | 89 | 4.8 | 6.4 | 0.00 | 0.00 | 0.00 | 37 | 1017.0 |
| 20260503183324 | 18 | 206 | 0.0 | 3.2 | 0.00 | 0.00 | 0.00 | 35 | 1018.0 |
| 20260503182823 | 19 | 326 | 3.2 | 6.4 | 0.00 | 0.00 | 0.00 | 32 | 1018.0 |
| 20260503182323 | 18 | 226 | 4.8 | 9.7 | 0.00 | 0.00 | 0.00 | 33 | 1018.0 |
| 20260503181822 | 18 | 185 | 0.0 | 3.2 | 0.00 | 0.00 | 0.00 | 39 | 1018.0 |
| 20260503181322 | 18 | 133 | 3.2 | 4.8 | 0.00 | 0.00 | 0.00 | 32 | 1018.0 |
| 20260503180821 | 18 | 170 | 8.0 | 8.0 | 0.00 | 0.00 | 0.00 | 32 | 1018.0 |
| 20260503180320 | 18 | 358 | 0.0 | 3.2 | 0.00 | 0.00 | 0.00 | 38 | 1018.0 |
| 20260503175820 | 18 | 68 | 6.4 | 6.4 | 0.00 | 0.00 | 0.00 | 34 | 1018.0 |
| 20260503175320 | 17 | 306 | 3.2 | 3.2 | 0.00 | 0.00 | 0.00 | 42 | 1018.0 |
| 20260503174819 | 18 | 354 | 4.8 | 4.8 | 0.00 | 0.00 | 0.00 | 35 | 1018.0 |
| 20260503174319 | 18 | 179 | 4.8 | 4.8 | 0.00 | 0.00 | 0.00 | 34 | 1018.0 |
| 20260503173818 | 18 | 197 | 0.0 | 4.8 | 0.00 | 0.00 | 0.00 | 35 | 1018.0 |
| 20260503173317 | 18 | 157 | 3.2 | 3.2 | 0.00 | 0.00 | 0.00 | 38 | 1018.0 |
| 20260503172817 | 17 | 224 | 3.2 | 8.0 | 0.00 | 0.00 | 0.00 | 35 | 1018.0 |
| 20260503172316 | 17 | 305 | 3.2 | 4.8 | 0.00 | 0.00 | 0.00 | 38 | 1018.0 |
| 20260503171816 | 17 | 336 | 3.2 | 3.2 | 0.00 | 0.00 | 0.00 | 41 | 1019.0 |
| 20260503171315 | 17 | 80 | 6.4 | 8.0 | 0.00 | 0.00 | 0.00 | 39 | 1019.0 |
| 20260503170814 | 17 | 173 | 4.8 | 4.8 | 0.00 | 0.00 | 0.00 | 36 | 1019.0 |
| 20260503170314 | 17 | 326 | 4.8 | 6.4 | 0.00 | 0.00 | 0.00 | 36 | 1019.0 |
| 20260503150801 | 16 | 342 | 3.2 | 4.8 | 0.00 | 0.00 | 0.00 | 36 | 1020.0 |
| 20260503150301 | 15 | 81 | 0.0 | 4.8 | 0.00 | 0.00 | 0.00 | 37 | 1020.0 |
| 20260503140255 | 13 | 19 | 3.2 | 4.8 | 0.00 | 0.00 | 0.00 | 49 | 1020.0 |
| 20260503131249 | 12 | 28 | 4.8 | 4.8 | 0.00 | 0.00 | 0.00 | 56 | 1020.0 |
| 20260503130748 | 12 | 82 | 3.2 | 8.0 | 0.00 | 0.00 | 0.00 | 59 | 1020.0 |
| 20260503130247 | 12 | 25 | 4.8 | 4.8 | 0.00 | 0.00 | 0.00 | 60 | 1020.0 |
| 20260503110735 | 4 | 111 | 4.8 | 4.8 | 0.00 | 0.00 | 0.00 | 89 | 1018.0 |
| 20260503110234 | 4 | 116 | 3.2 | 4.8 | 0.00 | 0.00 | 0.00 | 89 | 1018.0 |
| 20260503100228 | 5 | 22 | 3.2 | 4.8 | 0.00 | 0.00 | 0.00 | 83 | 1018.0 |
| 20260503090223 | 6 | 39 | 4.8 | 6.4 | 0.00 | 0.00 | 0.00 | 81 | 1018.0 |
| 20260503081218 | 6 | 115 | 3.2 | 3.2 | 0.00 | 0.00 | 0.00 | 80 | 1017.0 |
| 20260503080717 | 6 | 94 | 4.8 | 4.8 | 0.00 | 0.00 | 0.00 | 79 | 1017.0 |
| 20260503080217 | 6 | 88 | 0.0 | 3.2 | 0.00 | 0.00 | 0.00 | 78 | 1017.0 |
| 20260503072712 | 7 | 72 | 0.0 | 0.0 | 0.00 | 0.00 | 0.00 | 75 | 1017.0 |
| 20260503072212 | 7 | 89 | 3.2 | 3.2 | 0.00 | 0.00 | 0.00 | 77 | 1017.0 |
| 20260503071711 | 7 | 77 | 3.2 | 3.2 | 0.00 | 0.00 | 0.00 | 75 | 1017.0 |
| 20260503071211 | 7 | 77 | 0.0 | 3.2 | 0.00 | 0.00 | 0.00 | 72 | 1017.0 |
| 20260503070710 | 8 | 102 | 0.0 | 3.2 | 0.00 | 0.00 | 0.00 | 71 | 1017.0 |
| 20260503070209 | 8 | 124 | 0.0 | 3.2 | 0.00 | 0.00 | 0.00 | 70 | 1017.0 |
| 20260503060203 | 8 | 129 | 0.0 | 0.0 | 0.00 | 0.00 | 0.00 | 70 | 1017.0 |
| 20260503054702 | 9 | 142 | 0.0 | 0.0 | 0.00 | 0.00 | 0.00 | 68 | 1016.0 |
| 20260503054201 | 9 | 135 | 0.0 | 0.0 | 0.00 | 0.00 | 0.00 | 68 | 1016.0 |
| 20260503053701 | 9 | 76 | 0.0 | 3.2 | 0.00 | 0.00 | 0.00 | 69 | 1016.0 |
| 20260503053201 | 9 | 67 | 3.2 | 4.8 | 0.00 | 0.00 | 0.00 | 69 | 1016.0 |
| 20260503052700 | 9 | 76 | 3.2 | 3.2 | 0.00 | 0.00 | 0.00 | 67 | 1016.0 |
| 20260503052159 | 9 | 108 | 3.2 | 4.8 | 0.00 | 0.00 | 0.00 | 69 | 1016.0 |
| 20260503051659 | 9 | 131 | 4.8 | 4.8 | 0.00 | 0.00 | 0.00 | 68 | 1016.0 |
| 20260503051158 | 9 | 77 | 3.2 | 3.2 | 0.00 | 0.00 | 0.00 | 67 | 1016.0 |
| 20260503050658 | 9 | 93 | 3.2 | 3.2 | 0.00 | 0.00 | 0.00 | 67 | 1016.0 |
| 20260503050158 | 9 | 49 | 0.0 | 0.0 | 0.00 | 0.00 | 0.00 | 67 | 1016.0 |
| 20260503045657 | 10 | 83 | 3.2 | 3.2 | 0.00 | 0.00 | 0.00 | 67 | 1016.0 |
| 20260503045156 | 10 | 96 | 3.2 | 3.2 | 0.00 | 0.00 | 0.00 | 66 | 1016.0 |
| 20260503044656 | 10 | 115 | 3.2 | 3.2 | 0.00 | 0.00 | 0.00 | 66 | 1016.0 |
| 20260503044156 | 10 | 97 | 3.2 | 3.2 | 0.00 | 0.00 | 0.00 | 66 | 1016.0 |
| 20260503043655 | 10 | 82 | 3.2 | 3.2 | 0.00 | 0.00 | 0.00 | 65 | 1016.0 |
| 20260503043154 | 10 | 101 | 3.2 | 3.2 | 0.00 | 0.00 | 0.00 | 65 | 1016.0 |
| 20260503042654 | 10 | 114 | 3.2 | 3.2 | 0.00 | 0.00 | 0.00 | 64 | 1016.0 |
| 20260503042153 | 10 | 109 | 3.2 | 3.2 | 0.00 | 0.00 | 0.00 | 64 | 1016.0 |
| 20260503041652 | 10 | 121 | 3.2 | 3.2 | 0.00 | 0.00 | 0.00 | 63 | 1016.0 |
| 20260503041152 | 10 | 40 | 4.8 | 4.8 | 0.00 | 0.00 | 0.00 | 63 | 1016.0 |
| 20260503040651 | 10 | 30 | 3.2 | 4.8 | 0.00 | 0.00 | 0.00 | 61 | 1016.0 |
| 20260503040150 | 10 | 148 | 3.2 | 4.8 | 0.00 | 0.00 | 0.00 | 62 | 1016.0 |
| 20260503035650 | 10 | 76 | 0.0 | 3.2 | 0.00 | 0.00 | 0.00 | 63 | 1016.0 |
| 20260503035149 | 10 | 354 | 4.8 | 8.0 | 0.00 | 0.00 | 0.00 | 61 | 1016.0 |
| 20260503034649 | 10 | 2 | 0.0 | 3.2 | 0.00 | 0.00 | 0.00 | 62 | 1016.0 |
| 20260503034148 | 10 | 67 | 0.0 | 3.2 | 0.00 | 0.00 | 0.00 | 61 | 1016.0 |
| 20260503033648 | 10 | 103 | 0.0 | 0.0 | 0.00 | 0.00 | 0.00 | 61 | 1016.0 |
| 20260503033147 | 10 | 67 | 3.2 | 4.8 | 0.00 | 0.00 | 0.00 | 62 | 1016.0 |
| 20260503032647 | 10 | 63 | 4.8 | 4.8 | 0.00 | 0.00 | 0.00 | 61 | 1016.0 |
| 20260503032146 | 10 | 71 | 3.2 | 3.2 | 0.00 | 0.00 | 0.00 | 60 | 1016.0 |
| 20260503031646 | 10 | 47 | 0.0 | 3.2 | 0.00 | 0.00 | 0.00 | 60 | 1016.0 |
| 20260503031145 | 10 | 117 | 4.8 | 4.8 | 0.00 | 0.00 | 0.00 | 60 | 1016.0 |
| 20260503030645 | 10 | 34 | 3.2 | 3.2 | 0.00 | 0.00 | 0.00 | 60 | 1016.0 |
| 20260503030145 | 10 | 101 | 3.2 | 3.2 | 0.00 | 0.00 | 0.00 | 60 | 1016.0 |
| 20260503025644 | 10 | 44 | 0.0 | 0.0 | 0.00 | 0.00 | 0.00 | 60 | 1016.0 |
| 20260503025143 | 10 | 50 | 0.0 | 0.0 | 0.00 | 0.00 | 0.00 | 60 | 1016.0 |
| 20260503024643 | 10 | 116 | 0.0 | 3.2 | 0.00 | 0.00 | 0.00 | 60 | 1016.0 |
| 20260503024142 | 10 | 43 | 3.2 | 3.2 | 0.00 | 0.00 | 0.00 | 59 | 1015.0 |
| 20260503023641 | 10 | 107 | 0.0 | 3.2 | 0.00 | 0.00 | 0.00 | 59 | 1016.0 |
| 20260503023141 | 10 | 45 | 3.2 | 4.8 | 0.00 | 0.00 | 0.00 | 59 | 1015.0 |
| 20260503022640 | 10 | 47 | 3.2 | 3.2 | 0.00 | 0.00 | 0.00 | 58 | 1015.0 |
| 20260503022140 | 10 | 24 | 4.8 | 4.8 | 0.00 | 0.00 | 0.00 | 58 | 1015.0 |
| 20260503021639 | 10 | 79 | 3.2 | 3.2 | 0.00 | 0.00 | 0.00 | 58 | 1016.0 |
| 20260503021138 | 10 | 74 | 0.0 | 3.2 | 0.00 | 0.00 | 0.00 | 58 | 1015.0 |
| 20260503020638 | 10 | 69 | 0.0 | 0.0 | 0.00 | 0.00 | 0.00 | 58 | 1015.0 |
| 20260503020138 | 10 | 113 | 0.0 | 0.0 | 0.00 | 0.00 | 0.00 | 60 | 1015.0 |
| 20260503015637 | 10 | 82 | 0.0 | 3.2 | 0.00 | 0.00 | 0.00 | 58 | 1015.0 |
| 20260503015137 | 10 | 117 | 0.0 | 3.2 | 0.00 | 0.00 | 0.00 | 58 | 1015.0 |
| 20260503014636 | 10 | 52 | 3.2 | 3.2 | 0.00 | 0.00 | 0.00 | 57 | 1015.0 |
| 20260503014135 | 10 | 67 | 0.0 | 3.2 | 0.00 | 0.00 | 0.00 | 58 | 1015.0 |
| 20260503013635 | 10 | 96 | 0.0 | 3.2 | 0.00 | 0.00 | 0.00 | 57 | 1015.0 |
| 20260503013135 | 11 | 76 | 0.0 | 4.8 | 0.00 | 0.00 | 0.00 | 57 | 1015.0 |
| 20260503012634 | 11 | 123 | 3.2 | 3.2 | 0.00 | 0.00 | 0.00 | 57 | 1015.0 |
| 20260503012134 | 11 | 82 | 3.2 | 3.2 | 0.00 | 0.00 | 0.00 | 57 | 1015.0 |
| 20260503011633 | 11 | 98 | 3.2 | 3.2 | 0.00 | 0.00 | 0.00 | 55 | 1015.0 |
| 20260503011132 | 11 | 33 | 3.2 | 3.2 | 0.00 | 0.00 | 0.00 | 55 | 1015.0 |
| 20260503010632 | 11 | 125 | 3.2 | 3.2 | 0.00 | 0.00 | 0.00 | 54 | 1015.0 |
| 20260503010132 | 11 | 141 | 3.2 | 3.2 | 0.00 | 0.00 | 0.00 | 54 | 1014.0 |
| 20260503005631 | 11 | 105 | 0.0 | 3.2 | 0.00 | 0.00 | 0.00 | 55 | 1014.0 |
| 20260503005131 | 11 | 114 | 3.2 | 3.2 | 0.00 | 0.00 | 0.00 | 54 | 1014.0 |
| 20260503004630 | 11 | 44 | 0.0 | 0.0 | 0.00 | 0.00 | 0.00 | 54 | 1014.0 |
| 20260503004130 | 12 | 44 | 0.0 | 3.2 | 0.00 | 0.00 | 0.00 | 53 | 1014.0 |
| 20260503003629 | 12 | 115 | 3.2 | 3.2 | 0.00 | 0.00 | 0.00 | 54 | 1014.0 |
| 20260503003129 | 12 | 37 | 0.0 | 3.2 | 0.00 | 0.00 | 0.00 | 52 | 1014.0 |
| 20260503002628 | 12 | 135 | 0.0 | 0.0 | 0.00 | 0.00 | 0.00 | 51 | 1014.0 |
| 20260503002128 | 12 | 108 | 3.2 | 3.2 | 0.00 | 0.00 | 0.00 | 50 | 1014.0 |
| 20260503001628 | 12 | 37 | 4.8 | 4.8 | 0.00 | 0.00 | 0.00 | 51 | 1014.0 |
| 20260503001127 | 12 | 60 | 3.2 | 3.2 | 0.00 | 0.00 | 0.00 | 50 | 1014.0 |
| 20260503000627 | 13 | 98 | 0.0 | 4.8 | 0.00 | 0.00 | 0.00 | 49 | 1014.0 |
| 20260503000126 | 13 | 59 | 3.2 | 4.8 | 0.00 | 0.00 | 0.00 | 49 | 1014.0 |
| 20260502235625 | 13 | 62 | 0.0 | 3.2 | 0.00 | 0.00 | 0.00 | 47 | 1014.0 |
| 20260502235125 | 13 | 56 | 6.4 | 6.4 | 0.00 | 0.00 | 0.00 | 47 | 1014.0 |
| 20260502234625 | 13 | 154 | 4.8 | 6.4 | 0.00 | 0.00 | 0.00 | 46 | 1014.0 |
| 20260502234124 | 13 | 22 | 3.2 | 4.8 | 0.00 | 0.00 | 0.00 | 45 | 1014.0 |
| 20260502233624 | 14 | 135 | 6.4 | 6.4 | 0.00 | 0.00 | 0.00 | 44 | 1014.0 |
| 20260502233123 | 14 | 49 | 3.2 | 3.2 | 0.00 | 0.00 | 0.00 | 44 | 1013.0 |
| 20260502232623 | 14 | 358 | 3.2 | 4.8 | 0.00 | 0.00 | 0.00 | 43 | 1013.0 |
| 20260502232122 | 15 | 16 | 4.8 | 4.8 | 0.00 | 0.00 | 0.00 | 43 | 1013.0 |
| 20260502231622 | 15 | 288 | 0.0 | 4.8 | 0.00 | 0.00 | 0.00 | 41 | 1013.0 |
| 20260502231121 | 15 | 194 | 6.4 | 6.4 | 0.00 | 0.00 | 0.00 | 44 | 1013.0 |
| 20260502230620 | 15 | 352 | 8.0 | 11.3 | 0.00 | 0.00 | 0.00 | 43 | 1013.0 |
| 20260502230120 | 15 | 83 | 3.2 | 3.2 | 0.00 | 0.00 | 0.00 | 43 | 1013.0 |
| 20260502225620 | 15 | 164 | 4.8 | 6.4 | 0.00 | 0.00 | 0.00 | 42 | 1013.0 |
| 20260502225119 | 15 | 13 | 4.8 | 6.4 | 0.00 | 0.00 | 0.00 | 40 | 1013.0 |
| 20260502224618 | 15 | 194 | 4.8 | 6.4 | 0.00 | 0.00 | 0.00 | 39 | 1013.0 |
| 20260502224118 | 15 | 56 | 6.4 | 6.4 | 0.00 | 0.00 | 0.00 | 40 | 1013.0 |
| 20260502223617 | 16 | 91 | 4.8 | 6.4 | 0.00 | 0.00 | 0.00 | 40 | 1013.0 |
| 20260502223117 | 16 | 80 | 0.0 | 3.2 | 0.00 | 0.00 | 0.00 | 39 | 1013.0 |
| 20260502222617 | 16 | 60 | 0.0 | 4.8 | 0.00 | 0.00 | 0.00 | 39 | 1013.0 |
| 20260502222116 | 16 | 42 | 4.8 | 6.4 | 0.00 | 0.00 | 0.00 | 37 | 1013.0 |
| 20260502221615 | 16 | 50 | 0.0 | 3.2 | 0.00 | 0.00 | 0.00 | 37 | 1013.0 |
| 20260502221115 | 16 | 8 | 3.2 | 4.8 | 0.00 | 0.00 | 0.00 | 37 | 1013.0 |
| 20260502220614 | 17 | 134 | 4.8 | 4.8 | 0.00 | 0.00 | 0.00 | 38 | 1013.0 |
| 20260502220114 | 17 | 355 | 3.2 | 4.8 | 0.00 | 0.00 | 0.00 | 36 | 1013.0 |
| 20260502215613 | 17 | 107 | 3.2 | 3.2 | 0.00 | 0.00 | 0.00 | 40 | 1013.0 |
| 20260502215113 | 17 | 328 | 4.8 | 6.4 | 0.00 | 0.00 | 0.00 | 36 | 1013.0 |
| 20260502214612 | 17 | 44 | 8.0 | 8.0 | 0.00 | 0.00 | 0.00 | 37 | 1013.0 |
| 20260502214112 | 17 | 130 | 8.0 | 8.0 | 0.00 | 0.00 | 0.00 | 36 | 1013.0 |
| 20260502213611 | 16 | 210 | 0.0 | 0.0 | 0.00 | 0.00 | 0.00 | 40 | 1013.0 |
| 20260502213111 | 16 | 148 | 0.0 | 3.2 | 0.00 | 0.00 | 0.00 | 39 | 1013.0 |